TimeCDT,TemperatureF,Dew PointF,Humidity,Sea Level PressureIn,VisibilityMPH,Wind Direction,Wind SpeedMPH,Gust SpeedMPH,PrecipitationIn,Events,Conditions,WindDirDegrees,DateUTC
12:58 AM,80.6,68.2,66,29.89,10.0,ESE,8.1,-,N/A,,Mostly Cloudy,110,2013-07-12 05:58:00
1:58 AM,81.1,69.4,67,29.89,10.0,SE,11.5,-,N/A,,Overcast,130,2013-07-12 06:58:00
2:58 AM,79.2,69.6,72,29.88,10.0,SE,9.2,-,N/A,,Mostly Cloudy,130,2013-07-12 07:58:00
3:58 AM,76.5,70.0,80,29.88,10.0,ESE,8.1,-,N/A,,Partly Cloudy,110,2013-07-12 08:58:00
4:58 AM,76.3,69.4,79,29.89,10.0,ESE,5.8,-,N/A,,Clear,120,2013-07-12 09:58:00
5:58 AM,75.4,68.5,79,29.89,10.0,ESE,5.8,-,N/A,,Clear,120,2013-07-12 10:58:00
7:58 AM,78.3,68.5,72,29.92,10.0,SE,8.1,-,N/A,,Clear,130,2013-07-12 12:58:00
8:58 AM,82.8,68.2,61,29.92,10.0,SE,12.7,-,N/A,,Clear,130,2013-07-12 13:58:00
9:58 AM,87.4,67.5,51,29.92,10.0,SSE,9.2,-,N/A,,Clear,150,2013-07-12 14:58:00
10:58 AM,92.3,65.1,41,29.91,10.0,SSE,6.9,-,N/A,,Clear,150,2013-07-12 15:58:00
11:58 AM,96.6,63.5,33,29.91,10.0,SE,6.9,-,N/A,,Clear,140,2013-07-12 16:58:00
12:58 PM,100.0,62.6,29,29.89,10.0,SSW,6.9,-,N/A,,Clear,200,2013-07-12 17:58:00
1:58 PM,102.2,61.3,26,29.87,10.0,South,15.0,-,N/A,,Partly Cloudy,170,2013-07-12 18:58:00
2:16 PM,102.2,60.8,26,29.93,10.0,South,13.8,23.0,N/A,,Scattered Clouds,180,2013-07-12 19:16:00
2:58 PM,104.0,60.4,24,29.86,10.0,SSE,11.5,-,N/A,,Partly Cloudy,150,2013-07-12 19:58:00
3:58 PM,101.5,58.3,24,29.86,10.0,ESE,8.1,-,N/A,,Clear,110,2013-07-12 20:58:00
4:12 PM,104.0,59.0,23,29.90,10.0,South,13.8,21.9,N/A,,Partly Cloudy,170,2013-07-12 21:12:00
4:58 PM,103.3,58.1,22,29.83,10.0,SSE,11.5,-,N/A,,Partly Cloudy,150,2013-07-12 21:58:00
5:24 PM,104.0,59.0,23,29.89,10.0,East,13.8,23.0,N/A,,Scattered Clouds,100,2013-07-12 22:24:00
5:35 PM,102.2,59.0,24,29.89,10.0,SSE,17.3,23.0,N/A,,Partly Cloudy,150,2013-07-12 22:35:00
5:36 PM,102.2,59.0,24,29.89,10.0,SSE,16.1,23.0,N/A,,Clear,150,2013-07-12 22:36:00
5:58 PM,102.4,58.6,24,29.83,10.0,SE,16.1,-,N/A,,Clear,130,2013-07-12 22:58:00
6:58 PM,100.8,58.5,25,29.83,10.0,SSE,15.0,-,N/A,,Partly Cloudy,150,2013-07-12 23:58:00
7:48 PM,100.4,59.0,25,29.88,2.5,SSE,15.0,-,N/A,,Haze,150,2013-07-13 00:48:00
7:58 PM,99.5,59.5,27,29.83,3.0,SE,18.4,-,N/A,,Haze,130,2013-07-13 00:58:00
8:58 PM,95.4,58.8,29,29.83,5.0,ESE,15.0,-,N/A,,Haze,120,2013-07-13 01:58:00
9:18 PM,93.2,59.0,32,29.89,6.0,ESE,13.8,-,N/A,,Haze,120,2013-07-13 02:18:00
9:43 PM,93.2,60.8,34,29.90,6.0,ESE,11.5,-,N/A,,Haze,110,2013-07-13 02:43:00
9:58 PM,92.3,60.4,34,29.86,6.0,ESE,13.8,-,N/A,,Haze,110,2013-07-13 02:58:00
10:03 PM,91.4,60.8,36,29.91,6.0,ESE,12.7,-,N/A,,Haze,110,2013-07-13 03:03:00
10:13 PM,91.4,62.6,38,29.91,6.0,ESE,15.0,-,N/A,,Haze,120,2013-07-13 03:13:00
10:18 PM,91.4,62.6,38,29.91,7.0,ESE,15.0,-,N/A,,Clear,110,2013-07-13 03:18:00
10:58 PM,90.1,63.1,40,29.86,10.0,ESE,12.7,-,N/A,,Clear,120,2013-07-13 03:58:00
11:58 PM,87.4,63.5,45,29.88,10.0,ESE,10.4,-,N/A,,Clear,110,2013-07-13 04:58:00